EXS31VD LEMG-EGGD

Flight info

Callsign EXS31VD
Flight time N/A
Altitude 34000
Route BLN5P BLN DCT MORAL DCT BEXID DCT VTB DCT SIE DCT XERMA DCT ARLUN DCT BUGIX DCT UNGAS DCT DELOG DCT NOVAN DCT TERKU DCT NOZHU DCT SHIRI DCT TOJAQ TOJAQ2B
Aircraft B738/M-SDE2E3FGHIRWXY/LB1

Departure

Time N/A
Airport Málaga-Costa del Sol Airport (LEMG)

Arrival

Time 2026-05-05 19:29
Airport Bristol Airport (EGGD)
Time Latitude Longitude Altitude Speed Heading
2026-05-05 19:13 50.39293 -3.64293 29619 ft 444 kts 24°
2026-05-05 19:13 50.42062 -3.62251 28828 ft 438 kts 24°
2026-05-05 19:14 50.44795 -3.60218 28052 ft 432 kts 24°
2026-05-05 19:14 50.47485 -3.58229 27274 ft 427 kts 23°
2026-05-05 19:14 50.50159 -3.56277 26512 ft 421 kts 23°
2026-05-05 19:14 50.52761 -3.54399 25771 ft 414 kts 22°
2026-05-05 19:15 50.55391 -3.52523 24982 ft 409 kts 22°
2026-05-05 19:15 50.57941 -3.50719 24246 ft 403 kts 22°
2026-05-05 19:15 50.60459 -3.48949 23499 ft 398 kts 22°
2026-05-05 19:15 50.62964 -3.47196 22751 ft 393 kts 22°
2026-05-05 19:16 50.65443 -3.45464 22004 ft 388 kts 22°
2026-05-05 19:16 50.67898 -3.43751 21270 ft 383 kts 22°
2026-05-05 19:16 50.70293 -3.42081 20532 ft 378 kts 22°
2026-05-05 19:16 50.72688 -3.40410 19800 ft 374 kts 22°
2026-05-05 19:17 50.75039 -3.38769 19062 ft 370 kts 22°
2026-05-05 19:17 50.77394 -3.37123 17905 ft 378 kts 22°
2026-05-05 19:17 50.79826 -3.35425 16287 ft 395 kts 22°
2026-05-05 19:17 50.82285 -3.33704 15483 ft 386 kts 23°
2026-05-05 19:18 50.84610 -3.32068 15055 ft 372 kts 23°
2026-05-05 19:18 50.86952 -3.30411 13984 ft 376 kts 23°
2026-05-05 19:18 50.89365 -3.28694 12396 ft 390 kts 23°
2026-05-05 19:18 50.91824 -3.26938 11274 ft 388 kts 24°
2026-05-05 19:19 50.94210 -3.25224 10781 ft 369 kts 24°
2026-05-05 19:19 50.96502 -3.23576 10251 ft 354 kts 23°
2026-05-05 19:19 50.98692 -3.22043 9929 ft 336 kts 23°
2026-05-05 19:19 51.00788 -3.20598 9520 ft 323 kts 22°
2026-05-05 19:20 51.02802 -3.19209 9116 ft 311 kts 23°
2026-05-05 19:20 51.04749 -3.17854 8737 ft 300 kts 23°
2026-05-05 19:20 51.06608 -3.16547 8368 ft 290 kts 24°
2026-05-05 19:20 51.08321 -3.15336 8038 ft 281 kts 24°
2026-05-05 19:21 51.10093 -3.14079 7685 ft 273 kts 24°
2026-05-05 19:21 51.11814 -3.12857 7349 ft 265 kts 24°
2026-05-05 19:21 51.13469 -3.11679 7022 ft 258 kts 24°
2026-05-05 19:21 51.15081 -3.10525 6693 ft 251 kts 24°
2026-05-05 19:22 51.16637 -3.09411 6364 ft 246 kts 24°
2026-05-05 19:22 51.18103 -3.08364 6052 ft 241 kts 24°
2026-05-05 19:22 51.19534 -3.07343 5737 ft 236 kts 24°
2026-05-05 19:22 51.21013 -3.06288 5406 ft 232 kts 24°
2026-05-05 19:23 51.22426 -3.05282 5086 ft 229 kts 24°
2026-05-05 19:23 51.23851 -3.04266 4759 ft 225 kts 24°
2026-05-05 19:23 51.25259 -3.03262 4475 ft 220 kts 24°
2026-05-05 19:23 51.26634 -3.02279 4194 ft 215 kts 24°
2026-05-05 19:24 51.28003 -3.01298 3910 ft 211 kts 24°
2026-05-05 19:24 51.29319 -3.00350 3630 ft 207 kts 24°
2026-05-05 19:24 51.30623 -2.99407 3377 ft 202 kts 24°
2026-05-05 19:24 51.31881 -2.98494 3159 ft 198 kts 24°
2026-05-05 19:25 51.33129 -2.97581 2937 ft 195 kts 24°
2026-05-05 19:25 51.34346 -2.96684 2715 ft 191 kts 24°
2026-05-05 19:25 51.35544 -2.95796 2528 ft 189 kts 24°
2026-05-05 19:25 51.36625 -2.94648 2493 ft 192 kts 48°
2026-05-05 19:26 51.37196 -2.92683 2490 ft 199 kts 77°
2026-05-05 19:26 51.37358 -2.90497 2487 ft 199 kts 79°
2026-05-05 19:26 51.37516 -2.88293 2468 ft 200 kts 80°
2026-05-05 19:26 51.37638 -2.86106 2213 ft 192 kts 81°
2026-05-05 19:27 51.37734 -2.84057 1940 ft 179 kts 81°
2026-05-05 19:27 51.37819 -2.82132 1711 ft 167 kts 81°
2026-05-05 19:27 51.37897 -2.80353 1508 ft 153 kts 81°
2026-05-05 19:27 51.37969 -2.78740 1292 ft 142 kts 81°
2026-05-05 19:28 51.38038 -2.77178 1109 ft 141 kts 81°
2026-05-05 19:28 51.38107 -2.75623 914 ft 139 kts 81°
2026-05-05 19:28 51.38180 -2.74068 733 ft 138 kts 82°
2026-05-05 19:28 51.38241 -2.72547 603 ft 132 kts 83°
2026-05-05 19:29 51.38289 -2.71338 599 ft 77 kts 85°
2026-05-05 19:29 51.38310 -2.70822 599 ft 26 kts 86°
2026-05-05 19:29 51.38319 -2.70571 599 ft 13 kts 87°
2026-05-05 19:29 51.38356 -2.70487 599 ft 8 kts
2026-05-05 19:30 51.38418 -2.70509 599 ft 9 kts 343°
2026-05-05 19:30 51.38469 -2.70558 599 ft 8 kts 303°
2026-05-05 19:30 51.38476 -2.70640 599 ft 7 kts 265°
2026-05-05 19:30 51.38472 -2.70712 599 ft 5 kts 264°
2026-05-05 19:31 51.38469 -2.70769 599 ft 4 kts 265°
2026-05-05 19:31 51.38467 -2.70859 599 ft 13 kts 268°
2026-05-05 19:31 51.38461 -2.71009 599 ft 13 kts 266°
2026-05-05 19:31 51.38456 -2.71150 599 ft 12 kts 266°
2026-05-05 19:32 51.38451 -2.71277 599 ft 10 kts 266°
2026-05-05 19:32 51.38447 -2.71390 599 ft 9 kts 267°
2026-05-05 19:32 51.38452 -2.71445 599 ft 4 kts 309°
2026-05-05 19:32 51.38476 -2.71460 599 ft 3 kts 353°
2026-05-05 19:33 51.38498 -2.71464 599 ft 2 kts 355°
2026-05-05 19:33 51.38517 -2.71466 599 ft 2 kts 356°
2026-05-05 19:33 51.38540 -2.71468 599 ft 2 kts 356°
2026-05-05 19:33 51.38549 -2.71469 599 ft 0 kts 356°
2026-05-05 19:34 51.38550 -2.71469 599 ft 0 kts 356°